FW4606 Weather Reports


time (UTC)temp
F
wind
direction
speed
knots
gust
knots
rain 1hr
in
rain 24hr
in
rain mn
in
humidity
%
barometer
mb
20260503221513 74 165 2.6 6.1 0.00 0.00 0.00 26 1004.4
20260503221008 74 163 1.7 5.2 0.00 0.00 0.00 27 1004.5
20260503220507 74 186 2.6 8.7 0.00 0.00 0.00 26 1004.5
20260503220501 74 134 2.6 8.7 0.00 0.00 0.00 22 1004.6
20260503215450 74 221 1.7 6.1 0.00 0.00 0.00 29 1004.5
20260503215215 73 56 1.7 5.2 0.00 0.00 0.00 25 1004.7
20260503214438 73 160 0.9 4.3 0.00 0.00 0.00 27 1004.8
20260503214202 73 167 0.9 4.3 0.00 0.00 0.00 24 1004.8
20260503213431 73 92 0.9 5.2 0.00 0.00 0.00 29 1004.9
20260503213425 73 20 0.9 5.2 0.00 0.00 0.00 26 1004.9
20260503212413 72 159 0.9 3.5 0.00 0.00 0.00 24 1004.9
20260503211913 73 342 0.9 4.3 0.00 0.00 0.00 25 1005.1
20260503211908 72 6 0.9 4.3 0.00 0.00 0.00 25 1005.1
20260503210855 73 217 0.9 3.5 0.00 0.00 0.00 30 1005.1
20260503210621 73 32 0.9 3.5 0.00 0.00 0.00 24 1005.2
20260503205843 73 232 0.9 3.5 0.00 0.00 0.00 29 1005.2
20260503205338 72 95 1.7 5.2 0.00 0.00 0.00 26 1005.2
20260503204832 72 72 1.7 8.7 0.00 0.00 0.00 25 1005.4
20260503204331 73 165 0.9 6.1 0.00 0.00 0.00 29 1005.5
20260503204326 73 338 1.7 8.7 0.00 0.00 0.00 24 1005.4
20260503203313 73 134 0.0 4.3 0.00 0.00 0.00 26 1005.7
20260503203038 73 149 0.0 3.5 0.00 0.00 0.00 24 1005.5
20260503202537 72 108 0.9 3.5 0.00 0.00 0.00 27 1005.7
20260503202257 72 342 1.7 6.1 0.00 0.00 0.00 28 1005.8
20260503201250 72 37 1.7 6.1 0.00 0.00 0.00 25 1005.8
20260503200744 72 15 0.9 6.1 0.00 0.00 0.00 26 1005.7
20260503200238 72 165 1.7 6.1 0.00 0.00 0.00 25 1005.8
20260503195732 72 27 0.9 4.3 0.00 0.00 0.00 24 1005.8
20260503195225 72 0 0.9 4.3 0.00 0.00 0.00 26 1005.9
20260503194725 72 108 1.7 7.0 0.00 0.00 0.00 25 1006.0
20260503194214 72 174 1.7 7.0 0.00 0.00 0.00 29 1005.8
20260503193708 72 278 1.7 5.2 0.00 0.00 0.00 25 1005.9
20260503193202 73 354 0.9 5.2 0.00 0.00 0.00 26 1005.9
20260503192701 73 6 0.9 7.0 0.00 0.00 0.00 31 1006.1
20260503192656 73 113 0.9 7.0 0.00 0.00 0.00 29 1006.1
20260503191643 72 354 0.9 6.1 0.00 0.00 0.00 30 1006.3
20260503191408 72 9 0.9 3.5 0.00 0.00 0.00 26 1006.3
20260503190631 72 242 1.7 6.1 0.00 0.00 0.00 32 1006.3
20260503190125 71 179 1.7 7.0 0.00 0.00 0.00 33 1006.2
20260503185620 71 148 1.7 7.0 0.00 0.00 0.00 32 1006.3
20260503185113 71 107 2.6 7.0 0.00 0.00 0.00 33 1006.3
20260503184607 71 211 2.6 7.0 0.00 0.00 0.00 35 1006.4
20260503184101 71 193 1.7 6.1 0.00 0.00 0.00 34 1006.3
20260503183556 71 140 1.7 5.2 0.00 0.00 0.00 40 1006.3
20260503183049 71 24 0.9 5.2 0.00 0.00 0.00 32 1006.2
20260503182544 70 108 1.7 5.2 0.00 0.00 0.00 29 1006.3
20260503182038 70 6 1.7 5.2 0.00 0.00 0.00 28 1006.3
20260503181804 70 356 1.7 4.3 0.00 0.00 0.00 27 1006.3
20260503181026 70 22 1.7 6.1 0.00 0.00 0.00 31 1006.5
20260503180519 71 16 1.7 6.1 0.00 0.00 0.00 31 1006.6
20260503180013 71 314 1.7 7.0 0.00 0.00 0.00 35 1006.6
20260503175738 71 193 1.7 7.0 0.00 0.00 0.00 39 1006.6
20260503175002 71 288 0.9 4.3 0.00 0.00 0.00 41 1006.5
20260503174455 71 110 0.9 4.3 0.00 0.00 0.00 39 1006.5
20260503173950 70 92 1.7 5.2 0.00 0.00 0.00 37 1006.6
20260503173444 70 198 1.7 5.2 0.00 0.00 0.00 40 1006.5
20260503172943 69 101 0.9 5.2 0.00 0.00 0.00 38 1006.6
20260503172938 70 250 0.9 3.5 0.00 0.00 0.00 42 1006.6
20260503171929 69 313 1.7 5.2 0.00 0.00 0.00 38 1006.7
20260503171921 69 89 1.7 6.1 0.00 0.00 0.00 40 1006.8
20260503171145 69 259 1.7 6.1 0.00 0.00 0.00 47 1006.7
20260503170407 69 4 0.9 4.3 0.00 0.00 0.00 38 1006.7
20260503150649 63 330 0.9 5.2 0.00 0.00 0.00 47 1006.6
20260503150143 63 319 0.9 3.5 0.00 0.00 0.00 50 1006.5
20260503131052 54 19 0.9 5.2 0.00 0.00 0.00 63 1005.8
20260503130552 53 348 0.9 2.6 0.00 0.00 0.00 64 1005.7
20260503110441 49 190 0.0 0.0 0.00 0.00 0.00 63 1004.4
20260503090423 54 211 0.0 3.5 0.00 0.00 0.00 56 1004.6
20260503090153 54 246 0.0 1.7 0.00 0.00 0.00 57 1004.6
20260503081143 55 136 0.0 0.0 0.00 0.00 0.00 59 1004.9
20260503080412 55 136 0.0 0.9 0.00 0.00 0.00 59 1004.9
20260503072907 56 166 0.9 2.6 0.00 0.00 0.00 58 1005.2
20260503072407 56 215 0.0 1.7 0.00 0.00 0.00 59 1005.2
20260503071908 56 136 0.0 2.6 0.00 0.00 0.00 58 1005.2
20260503071407 56 158 0.0 2.6 0.00 0.00 0.00 57 1005.3
20260503070908 56 110 0.0 2.6 0.00 0.00 0.00 57 1005.2
20260503070405 56 203 0.0 2.6 0.00 0.00 0.00 57 1005.4
20260503054900 57 226 0.9 4.3 0.00 0.00 0.00 50 1006.5
20260503054359 57 100 1.7 4.3 0.00 0.00 0.00 50 1006.7
20260503053901 57 255 1.7 6.1 0.00 0.00 0.00 49 1006.9
20260503053401 57 145 1.7 6.1 0.00 0.00 0.00 49 1007.0
20260503052900 57 217 0.9 4.3 0.00 0.00 0.00 49 1007.1
20260503052401 57 125 1.7 5.2 0.00 0.00 0.00 49 1007.1
20260503051859 58 183 1.7 5.2 0.00 0.00 0.00 49 1007.1
20260503051630 58 156 0.9 6.1 0.00 0.00 0.00 48 1007.1
20260503050900 58 143 1.7 6.1 0.00 0.00 0.00 48 1007.0
20260503050400 58 146 1.7 6.1 0.00 0.00 0.00 48 1007.1
20260503045900 58 146 0.9 6.1 0.00 0.00 0.00 48 1007.0
20260503045631 58 222 0.9 4.3 0.00 0.00 0.00 48 1007.1
20260503044854 58 212 0.9 5.2 0.00 0.00 0.00 48 1007.2
20260503044348 58 204 0.9 5.2 0.00 0.00 0.00 47 1007.3
20260503043842 59 146 0.9 4.3 0.00 0.00 0.00 47 1007.4
20260503043337 59 169 0.9 3.5 0.00 0.00 0.00 47 1007.4
20260503043102 59 256 0.9 4.3 0.00 0.00 0.00 46 1007.4
20260503042325 59 162 0.9 4.3 0.00 0.00 0.00 46 1007.4
20260503041818 59 200 0.9 3.5 0.00 0.00 0.00 46 1007.6
20260503041313 60 201 0.9 4.3 0.00 0.00 0.00 46 1007.6
20260503040806 60 160 0.9 4.3 0.00 0.00 0.00 45 1007.7
20260503040301 60 188 0.9 3.5 0.00 0.00 0.00 46 1007.8
20260503035755 60 136 1.7 5.2 0.00 0.00 0.00 46 1007.9
20260503035249 60 188 1.7 5.2 0.00 0.00 0.00 46 1007.9
20260503034743 60 156 0.9 4.3 0.00 0.00 0.00 46 1008.0
20260503034237 60 193 0.9 3.5 0.00 0.00 0.00 46 1008.0
20260503033730 60 242 0.9 4.3 0.00 0.00 0.00 47 1008.2
20260503033226 60 170 0.9 4.3 0.00 0.00 0.00 47 1008.3
20260503032949 60 184 0.9 3.5 0.00 0.00 0.00 46 1008.4
20260503032213 60 132 0.0 3.5 0.00 0.00 0.00 47 1008.4
20260503031707 60 122 0.0 2.6 0.00 0.00 0.00 47 1008.5
20260503031201 60 78 0.0 2.6 0.00 0.00 0.00 47 1008.7
20260503030654 60 149 0.0 0.9 0.00 0.00 0.00 46 1008.8
20260503030148 60 143 0.0 3.5 0.00 0.00 0.00 46 1008.9
20260503025642 60 132 0.0 3.5 0.00 0.00 0.00 46 1008.9
20260503025136 60 189 0.0 1.7 0.00 0.00 0.00 47 1009.0
20260503024631 60 145 0.9 1.7 0.00 0.00 0.00 46 1009.0
20260503024124 60 135 0.0 1.7 0.00 0.00 0.00 47 1009.1
20260503023620 60 163 0.0 0.9 0.00 0.00 0.00 48 1009.2
20260503023113 60 175 0.0 0.9 0.00 0.00 0.00 49 1009.6
20260503022838 60 137 0.0 0.9 0.00 0.00 0.00 48 1009.8
20260503022101 60 228 0.0 1.7 0.00 0.00 0.00 47 1009.8
20260503021555 60 228 0.0 1.7 0.00 0.00 0.00 46 1009.8
20260503021049 61 242 0.9 6.1 0.00 0.00 0.00 46 1009.8
20260503020814 61 215 0.9 6.1 0.00 0.00 0.00 45 1009.8
20260503020309 61 122 0.9 4.3 0.00 0.00 0.00 45 1009.9
20260503015531 61 214 1.7 5.2 0.00 0.00 0.00 45 1009.9
20260503015025 62 150 2.6 7.8 0.00 0.00 0.00 43 1009.9
20260503014518 62 176 3.5 7.8 0.00 0.00 0.00 43 1010.0
20260503014013 62 228 4.3 8.7 0.00 0.00 0.00 42 1010.2
20260503013740 62 179 4.3 8.7 0.00 0.00 0.00 42 1010.2
20260503013502 62 141 3.5 10.4 0.00 0.00 0.00 40 1010.2
20260503012455 62 143 5.2 10.4 0.00 0.00 0.00 40 1010.0
20260503012219 62 219 4.3 10.4 0.00 0.00 0.00 40 1010.0
20260503011443 63 204 3.5 10.4 0.00 0.00 0.00 39 1009.9
20260503010937 63 215 3.5 7.0 0.00 0.00 0.00 39 1009.9
20260503010430 63 134 3.5 7.8 0.00 0.00 0.00 39 1009.8
20260503010157 63 208 2.6 7.8 0.00 0.00 0.00 39 1009.8
20260503005419 62 181 1.7 5.2 0.00 0.00 0.00 40 1009.8
20260503005144 63 137 1.7 4.3 0.00 0.00 0.00 42 1009.9
20260503004408 63 218 1.7 4.3 0.00 0.00 0.00 41 1009.8
20260503003900 63 208 1.7 4.3 0.00 0.00 0.00 42 1009.9
20260503003355 63 224 0.9 3.5 0.00 0.00 0.00 42 1009.9
20260503002848 63 157 1.7 3.5 0.00 0.00 0.00 43 1009.9
20260503002342 63 207 1.7 3.5 0.00 0.00 0.00 41 1010.0
20260503001837 64 193 1.7 4.3 0.00 0.00 0.00 40 1010.0
20260503001331 64 166 2.6 6.1 0.00 0.00 0.00 41 1010.0
20260503000825 64 142 3.5 7.0 0.00 0.00 0.00 40 1010.0
20260503000319 64 142 3.5 7.0 0.00 0.00 0.00 40 1010.1
20260502235813 64 207 2.6 7.8 0.00 0.00 0.00 39 1010.2
20260502235308 64 207 1.7 7.8 0.00 0.00 0.00 40 1010.2
20260502235304 64 193 1.7 5.2 0.00 0.00 0.00 41 1010.2
20260502234255 64 238 1.7 5.2 0.00 0.00 0.00 41 1010.2
20260502233748 64 231 1.7 6.1 0.00 0.00 0.00 41 1010.3
20260502233243 64 205 2.6 6.1 0.00 0.00 0.00 41 1010.3
20260502233008 64 164 2.6 7.0 0.00 0.00 0.00 40 1010.4
20260502232231 64 213 1.7 7.0 0.00 0.00 0.00 39 1010.3
20260502231725 65 203 0.9 6.1 0.00 0.00 0.00 39 1010.3
20260502231449 65 287 0.9 3.5 0.00 0.00 0.00 39 1010.4
20260502230713 65 201 0.9 3.5 0.00 0.00 0.00 40 1010.5
20260502230215 65 221 0.9 3.5 0.00 0.00 0.00 39 1010.6
20260502225701 64 201 0.0 2.6 0.00 0.00 0.00 40 1010.5
20260502225155 64 202 0.0 2.6 0.00 0.00 0.00 38 1010.6
20260502224648 64 135 0.0 0.9 0.00 0.00 0.00 39 1010.7
20260502224143 64 228 0.0 0.9 0.00 0.00 0.00 40 1010.7
20260502223637 64 205 0.0 1.7 0.00 0.00 0.00 38 1010.8
20260502223131 64 149 0.0 1.7 0.00 0.00 0.00 41 1010.9
20260502222625 64 207 0.9 3.5 0.00 0.00 0.00 38 1010.9
20260502222119 64 186 1.7 4.3 0.00 0.00 0.00 38 1011.0